Regional Weather Roundup
Issued by NWS Charleston, WV

Home | Current Version | Previous Version | Graphics & Text | Print | Product List | Glossary On
Versions: 1 2 3 4 5 6 7 8 9 10 11 12 13 14 15 16 17 18 19 20 21 22 23 24 25 26 27 28 29 30 31 32 33 34 35 36 37 38 39 40 41 42 43 44 45 46 47 48 49 50
389
ASUS41 KRLX 131310
RWRRLX
West Virginia Regional Weather Roundup
National Weather Service Charleston WV
800 AM EST SAT FEB 13 2016

Note: "fair" indicates few or no clouds below 12,000 feet with no
significant weather and/or obstructions to visibility.

WVZ003-131400-
Northern Panhandle of West Virginia

CITY           SKY/WX    TMP DP  RH WIND       PRES   REMARKS
WHEELING         N/A      6  -8  52 W15G24    30.31R WCI -12
$$

WVZ009-131400-
Northwest West Virginia

CITY           SKY/WX    TMP DP  RH WIND       PRES   REMARKS
PARKERSBURG      N/A      8  -8  48 NW8       30.43R WCI  -4
$$

WVZ006-131400-
Western West Virginia

CITY           SKY/WX    TMP DP  RH WIND       PRES   REMARKS
HUNTINGTON     CLOUDY    14   3  61 NW8       30.43R WCI   3
$$

WVZ015-131400-
West Central West Virginia

CITY           SKY/WX    TMP DP  RH WIND       PRES   REMARKS
CHARLESTON     FLURRIES  14   4  64 NW15G22   30.39R WCI  -1
$$

WVZ022-031-131400-
North Central West Virginia

CITY           SKY/WX    TMP DP  RH WIND       PRES   REMARKS
CLARKSBURG     CLOUDY    10   0  63 NW14      30.29R WCI  -6
MORGANTOWN     MOCLDY     8  -6  52 NW6       30.29R WCI  -2
$$

WVZ025-035-042-045-131400-
Southern West Virginia

CITY           SKY/WX    TMP DP  RH WIND       PRES   REMARKS
BECKLEY        LGT SNOW   8   1  73 NW9G20    30.21R WCI  -5
LOGAN          CLOUDY    12   3  67 NW12      30.32R WCI  -2
BLUEFIELD      LGT SNOW   8   2  76 NW13G25   30.17R WCI  -8
LEWISBURG      LGT SNOW  13   4  68 W6G18     30.18R WCI   3
$$

WVZ047-131400-
Northern Mountains of West Virginia

CITY           SKY/WX    TMP DP  RH WIND       PRES   REMARKS
ELKINS         LGT SNOW   8   0  69 NW12      30.20R WCI  -7
$$

WVZ052-131400-
Eastern Panhandle of West Virginia

CITY           SKY/WX    TMP DP  RH WIND       PRES   REMARKS
MARTINSBURG    CLOUDY    15   2  56 NW17G23   30.19R WCI  -1
PETERSBURG     LGT SNOW  15   5  64 CALM      30.23R
$$




USA.gov is the U.S. government's official web portal to all federal, state and local government web resources and services.